| time (UTC) | temp F | wind direction | speed knots | gust knots | rain 1hr in | rain 24hr in | rain mn in | humidity % | barometer mb |
| 20260507154524 | 60 | 278 | 0.9 | 4.3 | 0.00 | 0.00 | 0.00 | 50 | 1015.3 |
| 20260507153016 | 59 | 274 | 0.9 | 5.2 | 0.00 | 0.00 | 0.00 | 52 | 1015.5 |
| 20260507151509 | 58 | 276 | 0.9 | 7.8 | 0.00 | 0.00 | 0.00 | 53 | 1015.6 |
| 20260507150014 | 57 | 257 | 0.0 | 7.8 | 0.00 | 0.00 | 0.00 | 57 | 1016.0 |
| 20260507144529 | 56 | 259 | 0.0 | 6.1 | 0.00 | 0.00 | 0.00 | 60 | 1016.0 |
| 20260507143025 | 55 | 226 | 0.0 | 7.8 | 0.00 | 0.00 | 0.00 | 62 | 1016.1 |
| 20260507141510 | 54 | 235 | 0.0 | 1.7 | 0.00 | 0.00 | 0.00 | 64 | 1016.2 |
| 20260507140014 | 52 | 268 | 0.0 | 7.0 | 0.00 | 0.00 | 0.00 | 68 | 1016.4 |
| 20260507134523 | 51 | 293 | 0.0 | 2.6 | 0.00 | 0.00 | 0.00 | 70 | 1016.6 |
| 20260507133026 | 50 | 238 | 0.0 | 4.3 | 0.00 | 0.00 | 0.00 | 73 | 1016.7 |
| 20260507131530 | 49 | 220 | 0.0 | 1.7 | 0.00 | 0.00 | 0.00 | 77 | 1016.6 |
| 20260507130033 | 48 | 218 | 0.0 | 1.7 | 0.00 | 0.00 | 0.00 | 79 | 1016.5 |
| 20260507124517 | 46 | 267 | 0.0 | 0.9 | 0.00 | 0.00 | 0.00 | 81 | 1016.5 |
| 20260507123032 | 45 | 293 | 0.0 | 0.9 | 0.00 | 0.00 | 0.00 | 83 | 1016.5 |
| 20260507121527 | 44 | 274 | 0.0 | 0.9 | 0.00 | 0.00 | 0.00 | 84 | 1016.4 |
| 20260507120028 | 43 | 264 | 0.0 | 0.9 | 0.00 | 0.00 | 0.00 | 86 | 1016.5 |
| 20260507114529 | 43 | 236 | 0.0 | 0.0 | 0.00 | 0.00 | 0.00 | 85 | 1016.9 |
| 20260507113026 | 44 | 252 | 0.0 | 0.0 | 0.00 | 0.00 | 0.00 | 84 | 1016.8 |
| 20260507111522 | 44 | 260 | 0.0 | 0.9 | 0.00 | 0.00 | 0.00 | 83 | 1016.8 |
| 20260507110031 | 44 | 238 | 0.0 | 0.0 | 0.00 | 0.00 | 0.00 | 83 | 1016.9 |
| 20260507104527 | 44 | 249 | 0.0 | 0.0 | 0.00 | 0.00 | 0.00 | 83 | 1017.1 |
| 20260507103032 | 43 | 251 | 0.0 | 0.0 | 0.00 | 0.00 | 0.00 | 85 | 1017.2 |
| 20260507101519 | 42 | 262 | 0.0 | 0.0 | 0.00 | 0.00 | 0.00 | 87 | 1017.3 |
| 20260507100005 | 42 | 272 | 0.0 | 0.0 | 0.00 | 0.00 | 0.00 | 88 | 1017.4 |
| 20260507094507 | 42 | 276 | 0.0 | 0.0 | 0.00 | 0.00 | 0.00 | 86 | 1017.3 |
| 20260507093010 | 43 | 277 | 0.0 | 0.0 | 0.00 | 0.00 | 0.00 | 87 | 1017.3 |
| 20260507091513 | 43 | 274 | 0.0 | 0.0 | 0.00 | 0.01 | 0.00 | 87 | 1017.2 |
| 20260507090022 | 43 | 53 | 0.0 | 0.0 | 0.00 | 0.03 | 0.00 | 84 | 1017.3 |
| 20260507084524 | 45 | 63 | 0.0 | 0.0 | 0.00 | 0.03 | 0.00 | 82 | 1017.4 |
| 20260507083008 | 46 | 241 | 0.0 | 0.0 | 0.00 | 0.04 | 0.00 | 81 | 1017.6 |
| 20260507081513 | 47 | 287 | 0.0 | 0.9 | 0.00 | 0.05 | 0.00 | 80 | 1017.8 |
| 20260507080022 | 47 | 276 | 0.0 | 1.7 | 0.00 | 0.05 | 0.00 | 80 | 1018.0 |
| 20260507074522 | 47 | 253 | 0.0 | 1.7 | 0.00 | 0.05 | 0.00 | 79 | 1018.1 |
| 20260507073027 | 48 | 250 | 0.0 | 2.6 | 0.00 | 0.05 | 0.00 | 78 | 1018.2 |
| 20260507071509 | 48 | 266 | 0.0 | 2.6 | 0.00 | 0.05 | 0.00 | 78 | 1018.3 |
| 20260507070014 | 48 | 262 | 0.0 | 0.9 | 0.00 | 0.06 | 0.00 | 77 | 1018.4 |
| 20260507064519 | 49 | 264 | 0.0 | 0.9 | 0.00 | 0.06 | 0.00 | 76 | 1018.6 |
| 20260507063021 | 50 | 269 | 0.0 | 0.9 | 0.00 | 0.06 | 0.00 | 74 | 1018.6 |
| 20260507061527 | 50 | 276 | 0.0 | 0.0 | 0.00 | 0.06 | 0.00 | 72 | 1018.7 |
| 20260507060011 | 51 | 262 | 0.0 | 0.9 | 0.00 | 0.06 | 0.00 | 70 | 1018.7 |
| 20260507054515 | 51 | 263 | 0.0 | 0.0 | 0.00 | 0.06 | 0.00 | 69 | 1018.7 |
| 20260507053022 | 51 | 274 | 0.0 | 0.9 | 0.00 | 0.06 | 0.00 | 67 | 1018.8 |
| 20260507051525 | 52 | 271 | 0.0 | 0.0 | 0.00 | 0.06 | 0.00 | 66 | 1018.8 |
| 20260507050036 | 52 | 239 | 0.0 | 0.0 | 0.00 | 0.06 | 0.00 | 66 | 1018.9 |
| 20260507044509 | 52 | 259 | 0.0 | 0.0 | 0.00 | 0.06 | 0.06 | 65 | 1018.9 |
| 20260507043018 | 53 | 266 | 0.0 | 0.0 | 0.00 | 0.06 | 0.06 | 63 | 1019.1 |
| 20260507041536 | 53 | 278 | 0.0 | 0.9 | 0.00 | 0.06 | 0.06 | 62 | 1018.9 |
| 20260507040025 | 53 | 266 | 0.0 | 0.0 | 0.00 | 0.06 | 0.06 | 61 | 1018.9 |
| 20260507034526 | 53 | 275 | 0.0 | 0.0 | 0.00 | 0.06 | 0.06 | 59 | 1018.9 |
| 20260507033014 | 53 | 257 | 0.0 | 0.9 | 0.00 | 0.06 | 0.06 | 60 | 1018.9 |
| 20260507031519 | 53 | 295 | 0.0 | 0.0 | 0.00 | 0.06 | 0.06 | 61 | 1019.0 |
| 20260507030021 | 53 | 250 | 0.0 | 0.0 | 0.00 | 0.07 | 0.06 | 61 | 1018.9 |
| 20260507024528 | 53 | 269 | 0.0 | 0.0 | 0.00 | 0.08 | 0.06 | 60 | 1018.7 |
| 20260507023010 | 54 | 269 | 0.0 | 0.0 | 0.00 | 0.11 | 0.06 | 58 | 1018.6 |
| 20260507021513 | 54 | 271 | 0.0 | 0.0 | 0.00 | 0.12 | 0.06 | 57 | 1018.7 |
| 20260507020014 | 53 | 248 | 0.0 | 0.0 | 0.00 | 0.14 | 0.06 | 58 | 1018.8 |
| 20260507014515 | 52 | 269 | 0.0 | 0.0 | 0.00 | 0.15 | 0.06 | 59 | 1018.5 |
| 20260507013026 | 53 | 269 | 0.0 | 0.0 | 0.00 | 0.15 | 0.06 | 56 | 1018.3 |
| 20260507011529 | 55 | 250 | 0.0 | 0.0 | 0.00 | 0.16 | 0.06 | 54 | 1018.2 |
| 20260507010013 | 55 | 266 | 0.0 | 0.0 | 0.00 | 0.17 | 0.06 | 52 | 1018.0 |
| 20260507004518 | 57 | 256 | 0.0 | 0.0 | 0.00 | 0.17 | 0.06 | 50 | 1018.1 |
| 20260507003004 | 58 | 260 | 0.0 | 0.0 | 0.00 | 0.17 | 0.06 | 48 | 1018.1 |
| 20260507001508 | 58 | 257 | 0.0 | 0.0 | 0.00 | 0.17 | 0.06 | 45 | 1018.1 |
| 20260507000022 | 59 | 271 | 0.0 | 0.9 | 0.00 | 0.17 | 0.06 | 45 | 1018.3 |
| 20260506234514 | 61 | 285 | 0.0 | 1.7 | 0.00 | 0.17 | 0.06 | 44 | 1018.3 |
| 20260506233021 | 60 | 270 | 0.0 | 0.0 | 0.00 | 0.17 | 0.06 | 46 | 1018.3 |
| 20260506231504 | 61 | 266 | 0.0 | 0.9 | 0.00 | 0.17 | 0.06 | 43 | 1018.1 |
| 20260506230008 | 61 | 258 | 0.0 | 0.0 | 0.00 | 0.17 | 0.06 | 43 | 1018.3 |
| 20260506224516 | 61 | 252 | 0.0 | 0.9 | 0.00 | 0.17 | 0.06 | 43 | 1018.2 |
| 20260506223016 | 62 | 269 | 0.0 | 0.9 | 0.00 | 0.17 | 0.06 | 42 | 1018.2 |
| 20260506221517 | 64 | 271 | 0.0 | 0.9 | 0.00 | 0.17 | 0.06 | 39 | 1018.2 |
| 20260506220007 | 63 | 268 | 0.0 | 0.9 | 0.00 | 0.17 | 0.06 | 41 | 1018.5 |
| 20260506214511 | 64 | 136 | 0.0 | 0.9 | 0.00 | 0.17 | 0.06 | 38 | 1018.4 |
| 20260506213016 | 62 | 315 | 0.0 | 0.9 | 0.00 | 0.17 | 0.06 | 43 | 1018.4 |
| 20260506211520 | 60 | 41 | 0.0 | 0.9 | 0.00 | 0.17 | 0.06 | 41 | 1018.5 |
| 20260506210020 | 60 | 233 | 0.0 | 0.9 | 0.00 | 0.17 | 0.06 | 42 | 1018.7 |
| 20260506204510 | 61 | 241 | 0.0 | 0.9 | 0.00 | 0.17 | 0.06 | 42 | 1019.0 |
| 20260506203011 | 61 | 231 | 0.0 | 0.9 | 0.00 | 0.17 | 0.06 | 37 | 1019.3 |
| 20260506201522 | 60 | 248 | 0.0 | 1.7 | 0.00 | 0.17 | 0.06 | 40 | 1019.5 |
| 20260506200023 | 61 | 110 | 0.0 | 0.9 | 0.00 | 0.17 | 0.06 | 41 | 1019.7 |
| 20260506194524 | 61 | 76 | 0.0 | 0.9 | 0.00 | 0.17 | 0.06 | 43 | 1019.8 |
| 20260506193024 | 59 | 81 | 0.0 | 0.9 | 0.00 | 0.17 | 0.06 | 40 | 1019.9 |
| 20260506191518 | 62 | 131 | 0.0 | 0.9 | 0.00 | 0.17 | 0.06 | 40 | 1019.9 |
| 20260506190021 | 62 | 123 | 0.0 | 0.9 | 0.00 | 0.17 | 0.06 | 38 | 1020.0 |
| 20260506184525 | 63 | 129 | 0.0 | 0.9 | 0.00 | 0.17 | 0.06 | 39 | 1020.0 |
| 20260506183028 | 61 | 141 | 0.0 | 0.9 | 0.00 | 0.17 | 0.06 | 38 | 1020.1 |
| 20260506181531 | 60 | 31 | 0.0 | 0.9 | 0.00 | 0.17 | 0.06 | 39 | 1020.0 |
| 20260506180031 | 59 | 70 | 0.0 | 1.7 | 0.00 | 0.17 | 0.06 | 40 | 1020.1 |
| 20260506174527 | 57 | 98 | 0.0 | 2.6 | 0.00 | 0.17 | 0.06 | 45 | 1020.2 |
| 20260506173008 | 58 | 103 | 0.0 | 0.9 | 0.00 | 0.17 | 0.06 | 44 | 1020.2 |
| 20260506171521 | 56 | 96 | 0.0 | 1.7 | 0.00 | 0.17 | 0.06 | 45 | 1020.5 |
| 20260506170017 | 57 | 309 | 0.0 | 0.9 | 0.00 | 0.17 | 0.06 | 47 | 1020.6 |
| 20260506164521 | 56 | 298 | 0.0 | 3.5 | 0.00 | 0.17 | 0.06 | 48 | 1020.6 |
| 20260506163007 | 56 | 310 | 0.0 | 2.6 | 0.00 | 0.17 | 0.06 | 46 | 1020.8 |
| 20260506161516 | 55 | 328 | 0.0 | 0.9 | 0.00 | 0.17 | 0.06 | 52 | 1020.6 |
| 20260506160013 | 53 | 46 | 0.0 | 0.9 | 0.00 | 0.17 | 0.06 | 66 | 1020.7 |